Regional Weather Roundup
Issued by NWS

Home | Current Version | Previous Version | Graphics & Text | Print | Product List | Glossary On
Versions: 1 2 3 4 5 6 7 8 9 10 11 12 13 14 15 16 17 18 19 20 21 22 23 24 25 26 27
000
ASUS45 KTFX 240410
RWRMT
MONTANA REGIONAL WEATHER ROUNDUP
NATIONAL WEATHER SERVICE GREAT FALLS MT
900 PM MST FRI FEB 23 2018

NOTE: "FAIR" INDICATES FEW OR NO CLOUDS BELOW 12000 FEET WITH NO
SIGNIFICANT WEATHER AND/OR OBSTRUCTIONS TO VISIBILITY.

MTZ001>007-043-240500-
WEST OF THE DIVIDE

CITY           SKY/WX    TMP DP  RH WIND       PRES   REMARKS
KALISPELL      CLOUDY    19  12  74 S6        30.05F WCI  11
MISSOULA       CLOUDY    20  12  71 N5        30.08F
BUTTE          FAIR       6  -2  69 CALM      29.92S
MULLAN PASS    LGT SNOW   6   3  87 W8G25     29.88F FOG     WCI  -7
ANACONDA         N/A     14   0  52 CALM      29.95F
DEER LODGE       N/A      9   1  72 W8        29.98F WCI  -4
HAMILTON         N/A     23   5  46 MISG      30.06F
PLAINS           N/A     22  10  59 SW1       30.10F
RONAN            N/A     19  14  79 SE9G16    30.08F WCI   9
THOMPSON FALLS   N/A     18  13  80 SW3       30.16F
$$

MTZ008-052>055-240500-
SOUTHWEST MONTANA

CITY           SKY/WX    TMP DP  RH WIND       PRES   REMARKS
BOZEMAN        CLOUDY    11   3  70 SE5       29.94S
DILLON         CLOUDY     9   2  73 SW15      29.94F WCI  -8
ENNIS          CLOUDY    19   5  53 S14       29.96F WCI   6
W YELLOWSTONE  MOCLDY    10   7  85 SW14G20   29.91R HAZE    WCI  -5
THREE FORKS      N/A     11   5  76 CALM      29.94S
TWIN BRIDGES     N/A     17   0  47 CALM      29.95
$$

MTZ009-010-012-014-046-048-049-054-240500-
EAST SLOPES AND CENTRAL MONTANA

CITY           SKY/WX    TMP DP  RH WIND       PRES   REMARKS
CUT BANK       MOCLDY    15  10  80 W33G47    29.71S HAZE    WCI  -6
GREAT FALLS    FAIR      14   3  61 SW20      29.81F WCI  -3
MALMSTROM AFB  FAIR      15   8  71 SW22      29.83F WCI  -3
HELENA         MOCLDY    21   5  50 SW10G16   29.95F WCI  10
AUGUSTA        SNOWSHWR  13   8  78 W36G44    29.74F FOG     WCI  -9
BOWMANS CRNR   FAIR      10   2  68 SW18      29.78F WCI  -8
CHOTEAU          N/A     21   5  49 W29G40    29.74F WCI   3
CONRAD           N/A     18   7  62 S5        29.79
FAIRFIELD      FAIR      16   7  67 SW29      29.76F FOG     WCI  -4
POWER          FAIR      12   4  69 SW17      29.77F WCI  -5
RAYNESFORD     FAIR      19   4  50 SW17      29.81F WCI   4
ULM            FAIR      14   4  64 SW12      29.84F WCI   1
WHITE SULPHUR    N/A      9   1  72 SE15      29.84S WCI  -8
$$

MTZ011-013-016-021-045-047-050-051-240500-
NORTH CENTRAL MONTANA

CITY           SKY/WX    TMP DP  RH WIND       PRES   REMARKS
HAVRE          FAIR      16   7  67 SW23      29.81F WCI  -2
LEWISTOWN      FAIR      14   5  67 SW17      29.80F WCI  -3
N BAR RANCH    FAIR      18  -2  41 W5        29.81S
CHINOOK          N/A     -4  -8  84 E7        29.84F WCI -18
GEYSER         FAIR      15   5  63 W18       29.78F WCI  -2
STANFORD       FAIR       9   0  67 W13       29.77F WCI  -7
WINIFRED       FAIR      11   2  66 SW8       29.81S WCI   0
$$

MTZ017>020-022>027-061-062-240500-
NORTHEAST MONTANA

CITY           SKY/WX    TMP DP  RH WIND       PRES   REMARKS
GLASGOW        FAIR       0  -6  76 SE15      29.90F WCI -19
GLENDIVE       FAIR       2  -4  76 SW10      29.98F WCI -14
JORDAN           N/A     11   2  67 VRB3      29.89F
MALTA          CLEAR    -11 -17  77 CALM      29.87S
SIDNEY         FAIR      -3  -8  79 SW5       30.02F
WOLF POINT     FAIR      -9 -13  83 CALM      29.96F
PLENTYWOOD       N/A      1  -4  78 E7        29.93S WCI -11
POPLAR           N/A      3  -2  78 CALM      29.97F
SCOBEY           N/A     -1 -10  65 CALM      29.87F
$$

MTZ028>42-056>058-240500-
SOUTHCENTRAL AND SOUTHEAST MONTANA

CITY           SKY/WX    TMP DP  RH WIND       PRES   REMARKS
BAKER          FAIR       2  -4  76 SE10      29.98F WCI -14
BILLINGS       FAIR      16   5  62 SW15      29.88F WCI   1
LIVINGSTON     FAIR      20   4  50 W20       29.87S WCI   4
MILES CITY     FAIR       2  -3  80 SE16      29.96F WCI -18
BIG TIMBER     CLEAR     19   5  53 W25       29.85S WCI   2
EKALAKA          N/A     12  -1  56 SE14      29.91F WCI  -3
FORSYTH          N/A      3  -2  78 CALM      29.94S
HARLOWTON      FAIR      15   6  66 W22       29.83F WCI  -3
LAUREL           N/A     10   3  72 SW10      29.91S WCI  -3
$$

REGIONAL REPORTS...DAKOTAS

CITY           SKY/WX    TMP DP  RH WIND       PRES   REMARKS
WILLISTON      FAIR       4  -1  80 S3        30.00F
MINOT          FAIR      13   5  70 S15       30.04F WCI  -3
DICKINSON      FAIR       3  -5  69 SW12      30.00F WCI -13
BEACH          FAIR       3  -2  78 SE8       30.01F WCI -10
CROSBY         FAIR       7   0  72 S18       29.95F WCI -12
TIOGA          FAIR       5   3  92 S9        29.98F WCI  -9
WATFORD CITY   FAIR       5  -2  72 S6        30.00F WCI  -6
BISMARCK       FAIR       5   2  87 E5        30.16F
GRAND FORKS    FAIR       4   0  83 SW9       30.22F WCI -10
FARGO          FAIR       7   3  84 SW10      30.28R WCI  -8
BUFFALO SD       N/A      3  -3  76 SE5       29.93F
RAPID CITY     FAIR      11   2  67 SE13      30.01F WCI  -4
$$

REGIONAL REPORTS...WYOMING/IDAHO/WASHINGTON

CITY           SKY/WX    TMP DP  RH WIND       PRES   REMARKS
GILLETTE       FAIR      14   6  70 S16       29.89F WCI  -2
SHERIDAN       FAIR      -1  -7  75 N5        29.89F
BUFFALO WY     FAIR      16   2  54 W3        29.86F
CODY           FAIR      19   2  47 SW9       29.88F WCI   8
YELLOWSTONE LA   N/A     -8 -12  83 CALM      29.88F
IDAHO FALLS    FAIR      17  12  80 S17       30.09S WCI   1
SALMON         CLOUDY    21  12  68 CALM      30.06F
BOISE          CLOUDY    25  14  63 SE5       30.25S
SPOKANE        CLOUDY    22  19  89 SW15      30.11F WCI   9
$$

REGIONAL REPORTS...ALBERTA

CITY           SKY/WX    TMP DP  RH WIND       PRES   REMARKS
CALGARY        CLOUDY    25   3  39 W24G39    29.57F WCI   9
CARDSTON         N/A     19   5  53 W20G28      N/A  WCI   4
EDMONTON       CLEAR     30  16  55 W10       29.51S WCI  21
FORT MCMURRAY  CLOUDY    25  18  74 SW8       29.42F WCI  16
HIGH LEVEL     LGT SNOW  21  18  86 N8        29.54R WCI  12
LETHBRIDGE     PTCLDY    19  12  73 W37G44    29.68R BLWGSNOWWCI  -1
LLOYDMINSTER   MOCLDY    12   5  73 SW12      29.52S WCI  -2
MEDICINE HAT   CLEAR     18  12  79 S13G18    29.68S WCI   4
MILK RIVER       N/A     18  10  73 W22         N/A  WCI   0
PEACE RIVER    CLOUDY    30  18  59 W13G20    29.44S WCI  20
PINCHER CREEK  LGT SNOW  16   9  73 W43G52    29.69F VSB 3/4 WCI  -7
$$

REGIONAL REPORTS...SASKATCHEWAN

CITY           SKY/WX    TMP DP  RH WIND       PRES   REMARKS
CYPRESS HILLS    N/A      7   1  78 SW5         N/A
ESTEVAN        CLEAR      1  -4  78 S7        29.96F WCI -11
MOOSE JAW        N/A      7  -2  66 S23         N/A  WCI -14
PRINCE ALBERT  MOCLDY    12   5  73 S13       29.67F WCI  -3
REGINA         CLEAR      5  -2  72 S15       29.83F WCI -13
ROCKGLEN         N/A     -2  -6  84 S14         N/A  WCI -21
SASKATOON      MOCLDY    12   3  67 S16       29.68F WCI  -4
VAL MARIE        N/A     -8 -13  77 SW13        N/A  WCI -28
$$




USA.gov is the U.S. government's official web portal to all federal, state and local government web resources and services.